Regional Weather Roundup
Issued by NWS

Home | Current Version | Previous Version | Graphics & Text | Print | Product List | Glossary On
Versions: 1 2 3 4 5 6 7 8 9 10 11 12 13 14 15 16 17 18 19 20 21 22 23 24 25 26 27 28 29 30 31 32 33 34 35 36 37 38 39 40 41 42 43 44 45 46 47 48 49 50
000
ASUS45 KSLC 280610
RWRUT

UTAH REGIONAL WEATHER ROUNDUP
NATIONAL WEATHER SERVICE SALT LAKE CITY UT
1200 AM MDT THU AUG 28 2014

UTZ001>011-023>025-280700-

NORTHERN UTAH

CITY           SKY/WX    TMP DP  RH WIND       PRES   REMARKS
HILL AFB       CLEAR     63  49  60 E10       30.23S
LOGAN          CLEAR     57  53  86 CALM      30.21S
OGDEN          CLEAR     63  49  60 S10       30.21S
PROVO AIRPORT  CLEAR     57  52  82 SE5       30.26S
SALT LAKE CITY PTCLDY    64  51  62 SE8       30.21S
VERNAL         LGT RAIN  56  54  93 CALM      30.28R
WENDOVER       CLEAR     70  45  40 N3        30.19S
HEBER CITY     PTCLDY    48  46  93 E3        30.32S
WEST JORDAN    CLEAR     63  57  82 S6        30.24S

$$

UTZ012>022-026-027-280700-

SOUTHERN UTAH

CITY           SKY/WX    TMP DP  RH WIND       PRES   REMARKS
BRYCE CANYON   CLEAR     48  40  73 N5        30.41R
CEDAR CITY     CLEAR     55  45  68 SE3       30.28S
MILFORD        CLEAR     58  47  66 SE5       30.25S
MOAB/CYNLANDS  CLOUDY    67  49  52 E8        30.21S
PRICE          CLOUDY    57  46  66 N7        30.29F
ST GEORGE      PTCLDY    75  48  38 S6        30.11S

$$

REGIONAL REPORTS     COLORADO/ARIZONA

CITY           SKY/WX    TMP DP  RH WIND       PRES   REMARKS
CRAIG, CO      CLOUDY    54  50  86 W9        30.28F
GRAND JUNCTION CLOUDY    59  57  93 CALM      30.25R
RIFLE          CLOUDY    56  51  84 E5        30.27F
MONTROSE       MOCLDY    53  48  83 SE6       30.31S
CORTEZ         CLEAR     48  47  96 SE6       30.30
PAGE, AZ       PTCLDY    71  51  49 SW5       30.18S
GRAND CANYON     N/A    N/A N/A N/A MISG        N/A
KINGMAN        CLEAR     68  42  38 SE7       30.13S
FLAGSTAFF      MOCLDY    55  52  89 CALM      30.39S

$$

REGIONAL REPORTS    NEVADA/IDAHO/WYOMING

CITY           SKY/WX    TMP DP  RH WIND       PRES   REMARKS
LAS VEGAS, NV  CLEAR     86  34  15 SW10      29.98S
ELY            CLEAR     51  40  65 S10       30.32S
ELKO           CLEAR     62  37  39 NE3       30.22S
POCATELLO, ID  CLEAR     59  49  69 CALM      30.18S
BURLEY         CLEAR     59  51  75 SW5       30.14F
EVANSTON, WY   CLEAR     48  46  93 SW10      30.35S
ROCK SPRINGS   CLOUDY    49  46  90 SW9       30.30S

$$



USA.gov is the U.S. government's official web portal to all federal, state and local government web resources and services.